Durant, OK

11:06 AM CST on December 12, 2019 (GMT -0600)
Eaker

Weather History for KDUA - November, 2019

Change the Weather History Date:

Sunday, November 17, 2019

  Actual Average (WUND) Record (WUND)
Temperature  
Mean Temperature 53 °F -  
Max Temperature 69 °F - - (-1)
Min Temperature 37 °F - - (-1)
Degree Days  
Heating Degree Days 12    
Growing Degree Days 3 (Base 50)    
Moisture  
Dew Point 35 °F    
Average Humidity 57    
Maximum Humidity 81    
Minimum Humidity 31    
Precipitation  
Precipitation 0.00 in - - ()
Sea Level Pressure  
Sea Level Pressure 30.05 in    
Wind  
Wind Speed 2 mph (NW)    
Max Wind Speed 8 mph    
Max Gust Speed -    
Visibility 10 miles    
Events      
Averages and records for this station are not official NWS values.
T = Trace of Precipitation, MM = Missing Value Source: NWS Daily Summary

Daily Weather History Graph

Daily Weather History Graph

Search for Another Location

Airport or City:

Astronomy

Nov. 17, 2019 Rise Set
Actual Time 6:59 AM CST 5:21 PM CST
Civil Twilight 6:32 AM CST 5:47 PM CST
Nautical Twilight 6:02 AM CST 6:17 PM CST
Astronomical Twilight 5:33 AM CST 6:47 PM CST
Moon 10:02 PM CST (11/17) 11:42 AM CST (11/17)
Length of Visible Light 11h 14m
Length of Day
10h 21m
Waning Gibbous, 73% of the Moon is Illuminated
Nov 17
Waning Gibbous
Nov 19
Last Quarter
Nov 26
New
Dec 4
First Quarter
Dec 11
Full

Hourly Weather History & Observations

Time (CST) Temp. Windchill Dew Point Humidity Pressure Visibility Wind Dir Wind Speed Gust Speed Precip Events Conditions
12:17 AM 41.0 °F - 30.2 °F 65% 30.09 in 10.0 mi Calm Calm - N/A   Clear
12:37 AM 39.2 °F - 30.2 °F 70% 30.09 in 10.0 mi Calm Calm - N/A   Clear
12:57 AM 39.2 °F - 30.2 °F 70% 30.10 in 10.0 mi Calm Calm - N/A   Clear
1:18 AM 41.0 °F - 30.2 °F 65% 30.10 in 10.0 mi Calm Calm - N/A   Clear
1:37 AM 41.0 °F - 30.2 °F 65% 30.10 in 10.0 mi Calm Calm - N/A   Clear
2:18 AM 39.2 °F - 30.2 °F 70% 30.10 in 10.0 mi Calm Calm - N/A   Clear
2:57 AM 37.4 °F - 30.2 °F 75% 30.08 in 10.0 mi Calm Calm - N/A   Clear
3:37 AM 37.4 °F - 30.2 °F 75% 30.08 in 10.0 mi Calm Calm - N/A   Clear
3:58 AM 37.4 °F - 30.2 °F 75% 30.08 in 10.0 mi Calm Calm - N/A   Clear
4:37 AM 37.4 °F 32.1 °F 30.2 °F 75% 30.06 in 10.0 mi SSE 6.9 mph - N/A   Clear
4:57 AM 39.2 °F - 32.0 °F 75% 30.06 in 10.0 mi Calm Calm - N/A   Clear
5:17 AM 39.2 °F 35.9 °F 32.0 °F 75% 30.06 in 10.0 mi SE 4.6 mph - N/A   Clear
5:38 AM 39.2 °F 37.0 °F 30.2 °F 70% 30.06 in 10.0 mi SE 3.5 mph - N/A   Clear
5:57 AM 37.4 °F - 30.2 °F 75% 30.06 in 10.0 mi Calm Calm - N/A   Clear
6:17 AM 37.4 °F - 30.2 °F 75% 30.08 in 10.0 mi Calm Calm - N/A   Clear
6:37 AM 37.4 °F 34.9 °F 30.2 °F 75% 30.07 in 10.0 mi ESE 3.5 mph - N/A   Clear
7:37 AM 39.2 °F - 33.8 °F 81% 30.08 in 10.0 mi Calm Calm - N/A   Clear
7:57 AM 39.2 °F - 33.8 °F 81% 30.09 in 10.0 mi Calm Calm - N/A   Clear
8:59 AM 44.6 °F - 33.8 °F 66% 30.09 in 10.0 mi Calm Calm - N/A   Clear
9:57 AM 51.8 °F - 37.4 °F 58% 30.09 in 10.0 mi Calm Calm - N/A   Clear
10:17 AM 53.6 °F - 37.4 °F 54% 30.09 in 10.0 mi WSW 3.5 mph - N/A   Clear
10:57 AM 60.8 °F - 37.4 °F 42% 30.08 in 10.0 mi West 5.8 mph - N/A   Clear
11:18 AM 60.8 °F - 37.4 °F 42% 30.07 in 10.0 mi WSW 6.9 mph - N/A   Clear
11:37 AM 62.6 °F - 37.4 °F 39% 30.06 in 10.0 mi West 3.5 mph - N/A   Clear
11:57 AM 64.4 °F - 37.4 °F 37% 30.05 in 10.0 mi Calm Calm - N/A   Clear
12:17 PM 64.4 °F - 37.4 °F 37% 30.04 in 10.0 mi West 4.6 mph - N/A   Clear
12:37 PM 66.2 °F - 37.4 °F 35% 30.03 in 10.0 mi Calm Calm - N/A   Clear
1:37 PM 69.8 °F - 37.4 °F 31% 30.00 in 10.0 mi Calm Calm - N/A   Clear
1:58 PM 69.8 °F - 37.4 °F 31% 30.00 in 10.0 mi Calm Calm - N/A   Clear
2:19 PM 69.8 °F - 37.4 °F 31% 30.00 in 10.0 mi West 3.5 mph - N/A   Clear
2:58 PM 69.8 °F - 37.4 °F 31% 29.99 in 10.0 mi NNW 6.9 mph - N/A   Clear
3:18 PM 68.0 °F - 37.4 °F 33% 30.00 in 10.0 mi NW 8.1 mph - N/A   Clear
3:38 PM 66.2 °F - 37.4 °F 35% 29.99 in 10.0 mi NNW 3.5 mph - N/A   Clear
3:58 PM 66.2 °F - 37.4 °F 35% 29.99 in 10.0 mi NNW 3.5 mph - N/A   Clear
4:18 PM 66.2 °F - 37.4 °F 35% 30.00 in 10.0 mi NNW 4.6 mph - N/A   Clear
4:38 PM 66.2 °F - 37.4 °F 35% 30.00 in 10.0 mi North 4.6 mph - N/A   Clear
5:40 PM 57.2 °F - 37.4 °F 48% 30.01 in 10.0 mi Calm Calm - N/A   Clear
6:18 PM 53.6 °F - 39.2 °F 58% 30.02 in 10.0 mi Calm Calm - N/A   Clear
6:38 PM 53.6 °F - 39.2 °F 58% 30.02 in 10.0 mi Calm Calm - N/A   Clear
6:58 PM 51.8 °F - 39.2 °F 62% 30.02 in 10.0 mi Calm Calm - N/A   Clear
7:18 PM 51.8 °F - 39.2 °F 62% 30.02 in 10.0 mi Calm Calm - N/A   Clear
7:38 PM 51.8 °F - 39.2 °F 62% 30.03 in 10.0 mi Calm Calm - N/A   Clear
8:18 PM 51.8 °F - 39.2 °F 62% 30.04 in 10.0 mi NW 3.5 mph - N/A   Clear
8:38 PM 53.6 °F - 37.4 °F 54% 30.04 in 10.0 mi NNW 4.6 mph - N/A   Clear
9:18 PM 51.8 °F - 37.4 °F 58% 30.04 in 10.0 mi NNW 4.6 mph - N/A   Clear
9:58 PM 50.0 °F - 37.4 °F 62% 30.04 in 10.0 mi NW 5.8 mph - N/A   Clear
10:18 PM 48.2 °F - 37.4 °F 66% 30.04 in 10.0 mi NW 6.9 mph - N/A   Clear
10:38 PM 48.2 °F - 35.6 °F 62% 30.04 in 10.0 mi NNW 6.9 mph - N/A   Clear
10:57 PM 48.2 °F - 35.6 °F 62% 30.04 in 10.0 mi NW 5.8 mph - N/A   Clear
11:17 PM 48.2 °F - 35.6 °F 62% 30.03 in 10.0 mi NNW 5.8 mph - N/A   Clear
11:39 PM 46.4 °F 44.3 °F 35.6 °F 66% 30.03 in 10.0 mi NNW 4.6 mph - N/A   Clear
11:57 PM 46.4 °F 43.5 °F 35.6 °F 66% 30.02 in 10.0 mi NNW 5.8 mph - N/A   Clear